Location: Drocourt
(49.0571°N, 1.7669°E)
Time: 00:18:15
(UTC+00:00)

CZ-4 R/B - Pass Details

Date: 09 February 2023
Orbit: 525 x 587 km, 97.7° (Epoch: 21 March)

Event Time Altitude Azimuth Distance (km) Brightness Sun altitude
Rises 19:25:49 0° 184° (S) 2,781 4.9 -23.8°
Reaches altitude 10° 19:28:05 10° 192° (SSW) 1,878 4.1 -24.2°
Maximum altitude 19:31:54 39° 262° (W) 863 2.7 -24.8°
Drops below altitude 10° 19:35:42 10° 332° (NNW) 1,858 4.4 -25.4°
Sets 19:37:56 0° 340° (NNW) 2,747 5.2 -25.8°
